{"data":{"norad_id":52865,"epoch":"2026-09-19T14:12:37.664640Z","epoch_age_seconds":147242,"freshness":"FRESH","line1":"1 52865U 22062AM  26262.59210260  .00000660  00000+0  30676-4 0  9998","line2":"2 52865  53.1614 221.6328 0001215  90.6721 269.4421 15.34393082235361","mean_motion":15.34393082,"eccentricity":0.0001215,"inclination_deg":53.1614,"raan_deg":221.6328,"arg_perigee_deg":90.6721,"mean_anomaly_deg":269.4421,"bstar":3.0676e-5,"rev_number":23536,"period_min":93.848181205499,"perigee_km":461.89263745081,"apogee_km":463.55496662571,"semimajor_km":6840.8608020383,"source":"CELESTRAK","updated_at":"2026-09-20T09:00:40.135209Z"}}